This is the latest recevied weather packets stored in our database for station/object EA7AVH-10. If no packets are shown the sender has not sent any weather packets the latest 10 day(s).
| Time | Temp. | Humidity | Pressure | Rain* | Wind** | Luminosity | Snow |
|---|---|---|---|---|---|---|---|
| 1778047347 | 18.89° C | 41% | 919.4 hPa | - | - | - | - |
| 1778046446 | 15.56° C | 45% | 919.2 hPa | - | - | - | - |
| 1778045545 | 10.56° C | 51% | 919.1 hPa | - | - | - | - |
| 1778044644 | 9.44° C | 53% | 919 hPa | - | - | - | - |
| 1778043761 | 8.89° C | 53% | 919 hPa | - | - | - | - |
| 1778042860 | 10° C | 53% | 918.7 hPa | - | - | - | - |
| 1778041959 | 10.56° C | 52% | 918.7 hPa | - | - | - | - |
| 1778041058 | 10° C | 52% | 918.7 hPa | - | - | - | - |
| 1778040158 | 10° C | 51% | 918.8 hPa | - | - | - | - |
| 1778039257 | 10° C | 50% | 918.7 hPa | - | - | - | - |
| 1778038356 | 10° C | 50% | 918.8 hPa | - | - | - | - |
| 1778037455 | 10.56° C | 50% | 919 hPa | - | - | - | - |
| 1778036554 | 10.56° C | 50% | 919 hPa | - | - | - | - |
| 1778035654 | 11.11° C | 49% | 919 hPa | - | - | - | - |
| 1778034753 | 11.67° C | 49% | 919.2 hPa | - | - | - | - |
| 1778033852 | 11.67° C | 49% | 919.2 hPa | - | - | - | - |
| 1778032951 | 12.22° C | 48% | 919.2 hPa | - | - | - | - |
| 1778032050 | 11.67° C | 48% | 919.2 hPa | - | - | - | - |
| 1778031150 | 11.67° C | 47% | 919.4 hPa | - | - | - | - |
| 1778030249 | 12.78° C | 46% | 919.5 hPa | - | - | - | - |
| 1778029348 | 13.89° C | 45% | 919.5 hPa | - | - | - | - |
| 1778028447 | 13.33° C | 45% | 919.6 hPa | - | - | - | - |
| 1778027546 | 13.33° C | 45% | 919.7 hPa | - | - | - | - |
| 1778026646 | 13.89° C | 45% | 919.8 hPa | - | - | - | - |
| 1778025745 | 14.44° C | 44% | 919.9 hPa | - | - | - | - |
* Rain since midnight (hover to see other rain measurements)
** Current wind speed in m/s (hover to see current wind gust speed)